Russell, KS

3:31 PM CDT on July 23, 2016 (GMT -0500)
Russell Municipal

Weather History for KRSL - September, 2012

Change the Weather History Date:

Monday, September 24, 2012

  Actual Average Record
Temperature  
Mean Temperature 61 °F -  
Max Temperature 78 °F 75 °F 96 °F (1958)
Min Temperature 44 °F 49 °F 33 °F (1965)
Degree Days  
Heating Degree Days 4    
Growing Degree Days 11 (Base 50)    
Moisture  
Dew Point 45 °F    
Average Humidity 57    
Maximum Humidity 79    
Minimum Humidity 35    
Precipitation  
Precipitation 0.00 in - - ()
Sea Level Pressure  
Sea Level Pressure 29.94 in    
Wind  
Wind Speed 7 mph (ENE)    
Max Wind Speed 10 mph    
Max Gust Speed -    
Visibility 10 miles    
Events      
Averages and records for this station are not official NWS values.
T = Trace of Precipitation, MM = Missing Value Source: NWS Daily Summary

Daily Weather History Graph

Daily Weather History Graph

Search for Another Location

Airport or City:

Trip Planner

Search our weather history database for the weather conditions in past years. The results will help you decide how hot, cold, wet, or windy it might be!

Date:

Astronomy

Sep. 24, 2012 Rise Set
Actual Time 7:25 AM CDT 7:28 PM CDT
Civil Twilight 6:58 AM CDT 7:54 PM CDT
Nautical Twilight 6:27 AM CDT 8:25 PM CDT
Astronomical Twilight 5:56 AM CDT 8:57 PM CDT
Moon 4:12 PM CDT (9/24) 1:46 AM CDT (9/24)
Length of Visible Light 12h 56m
Length of Day
12h 02m
Waxing Gibbous, 71% of the Moon is Illuminated
Sep 24
Waxing Gibbous
Sep 29
Full
Oct 8
Last Quarter
Oct 15
New
Oct 21
First Quarter

Hourly Weather History & Observations

Time (CDT) Temp. Windchill Dew Point Humidity Pressure Visibility Wind Dir Wind Speed Gust Speed Precip Events Conditions
12:53 AM 53.1 °F - 36.0 °F 52% 30.11 in 10.0 mi ESE 8.1 mph - N/A   Clear
1:53 AM 48.9 °F - 36.0 °F 61% 30.11 in 10.0 mi East 8.1 mph - N/A   Clear
2:53 AM 46.9 °F - 37.0 °F 68% 30.10 in 10.0 mi East 6.9 mph - N/A   Clear
3:53 AM 46.0 °F 42.5 °F 37.0 °F 71% 30.07 in 10.0 mi East 6.9 mph - N/A   Clear
4:53 AM 46.0 °F 42.5 °F 37.0 °F 71% 30.05 in 10.0 mi East 6.9 mph - N/A   Clear
5:53 AM 46.0 °F 41.4 °F 37.9 °F 73% 30.04 in 10.0 mi ENE 9.2 mph - N/A   Clear
6:53 AM 44.1 °F 39.5 °F 37.9 °F 79% 30.03 in 10.0 mi ENE 8.1 mph - N/A   Clear
7:53 AM 46.0 °F 42.5 °F 39.0 °F 76% 30.03 in 10.0 mi ENE 6.9 mph - N/A   Clear
8:53 AM 54.0 °F - 41.0 °F 62% 30.00 in 10.0 mi ESE 8.1 mph - N/A   Clear
9:53 AM 57.0 °F - 43.0 °F 59% 29.98 in 10.0 mi SSE 5.8 mph - N/A   Clear
10:53 AM 64.9 °F - 48.0 °F 54% 29.95 in 10.0 mi South 10.4 mph - N/A   Clear
11:53 AM 69.1 °F - 48.9 °F 49% 29.93 in 10.0 mi SSW 6.9 mph - N/A   Clear
12:53 PM 72.0 °F - 48.9 °F 44% 29.91 in 10.0 mi Variable 4.6 mph - N/A   Clear
1:04 PM 73.4 °F - 50.0 °F 44% 29.93 in 10.0 mi North - - N/A   Clear
1:53 PM 75.2 °F - 48.2 °F 38% 29.89 in 10.0 mi Calm Calm - N/A   Clear
2:53 PM 75.9 °F - 48.9 °F 38% 29.85 in 10.0 mi Calm Calm - N/A   Clear
3:53 PM 78.1 °F - 48.0 °F 35% 29.84 in 10.0 mi North 4.6 mph - N/A   Clear
4:53 PM 77.0 °F - 48.9 °F 37% 29.83 in 10.0 mi NE 5.8 mph - N/A   Clear
5:53 PM 75.9 °F - 48.9 °F 38% 29.82 in 10.0 mi ENE 6.9 mph - N/A   Clear
6:53 PM 70.0 °F - 51.1 °F 51% 29.83 in 10.0 mi NE 10.4 mph - N/A   Clear
7:53 PM 66.0 °F - 50.0 °F 56% 29.83 in 10.0 mi NE 8.1 mph - N/A   Clear
8:53 PM 63.0 °F - 50.0 °F 63% 29.83 in 10.0 mi NE 6.9 mph - N/A   Clear
9:53 PM 62.1 °F - 50.0 °F 65% 29.83 in 10.0 mi NNE 4.6 mph - N/A   Clear
10:53 PM 61.0 °F - 51.1 °F 70% 29.83 in 10.0 mi ENE 5.8 mph - N/A   Partly Cloudy
11:53 PM 62.1 °F - 52.0 °F 70% 29.81 in 10.0 mi NNW 10.4 mph - N/A   Partly Cloudy